sat.trackr.live / text

‹ back to catalog

STARLINK-4417

NORAD 53200 · 2022-084M

PAYLOAD ACTIVE UNKNOWN

§ Identity

Operator
Country
US
Launch date
2022-07-22
Launch site
AFWTR
Launch vehicle
Mass (kg)
RCS (m²)

Purposes: comms

External: N2YO · Heavens-Above · Gunter

§ Orbital elements

Epoch: 2026-05-25T02:32:59.715744Z

Period
95.64 min
Inclination
97.4529°
Eccentricity
0.0002331
Mean motion
15.05654898 rev/d
Perigee alt
547.9 km
Apogee alt
551.1 km
Semi-major
6,927.6 km
B*
-5.3330e-5
RAAN
206.1315°
Arg perigee
130.7583°
Mean anomaly
229.3847°
Rev number
21,153

§ Raw data

STARLINK-44171 53200U 22084M   26145.10624671 -.00000828  00000+0 -53330-4 0  99982 53200  97.4529 206.1315 0002331 130.7583 229.3847 15.05654898211530

JSON: /api/v1/satellites/53200 · /tle

For live sub-satellite position, see the globe view (requires WebGL).

§ Visibility from observer

Set your observer location to see the next 7 days of passes ≥ 10°. The values pass through the URL so the page stays shareable.

No JS? Fill the form by hand. The geolocation button needs JavaScript.